Location: Unspecified
(51.5147°N, 7.4673°E)
Time: 15:45:19
(UTC+01:00)

Vanguard 2 - Pass Details

Date: 23 February 2026
Orbit: 553 x 2896 km, 32.9° (Epoch: 6 March)

Event Time Altitude Azimuth Distance (km) Brightness Sun altitude
Rises 06:23:37 0° 235° (SW) 4,002 - -10.8°
Exits shadow 06:24:42 - 231° (SW) 3,662 10.6 -10.6°
Reaches altitude 10° 06:29:38 10° 197° (SSW) 2,447 10.0 -9.8°
Maximum altitude 06:30:27 10° 188° (S) 2,351 10.0 -9.7°
Drops below altitude 10° 06:31:15 10° 180° (S) 2,305 10.0 -9.6°
Sets 06:35:45 0° 136° (SE) 2,893 11.3 -8.9°
